Hourly Weather Bolshoe Frolovo

Today, 23 July, Friday

Time Temperature Precipitation Wind Pressure Humidity
00:00 +15°C° 0 mm 2 mps 739 mmHg 88%
01:00 +14°C° 0 mm 2 mps 740 mmHg 87%
02:00 +14°C° 0 mm 2 mps 740 mmHg 86%
03:00 +13°C° 0 mm 2 mps 740 mmHg 85%
04:00 +14°C° 0 mm 2 mps 740 mmHg 84%
05:00 +14°C° 0 mm 2 mps 740 mmHg 83%
06:00 +15°C° 0 mm 2 mps 740 mmHg 81%
07:00 +16°C° 0 mm 3 mps 740 mmHg 73%
08:00 +18°C° 0 mm 4 mps 740 mmHg 64%
09:00 +19°C° 0 mm 4 mps 740 mmHg 54%
10:00 +20°C° 0 mm 4 mps 740 mmHg 49%
11:00 +21°C° 0 mm 4 mps 740 mmHg 44%
12:00 +22°C° 0 mm 4 mps 740 mmHg 40%
13:00 +22°C° 0 mm 3 mps 740 mmHg 39%
14:00 +24°C° 0 mm 3 mps 740 mmHg 38%
15:00 +24°C° 0 mm 3 mps 740 mmHg 38%
16:00 +22°C° 0 mm 3 mps 740 mmHg 43%
17:00 +21°C° 0 mm 3 mps 740 mmHg 49%
18:00 +21°C° 0 mm 3 mps 740 mmHg 54%
19:00 +20°C° 0 mm 3 mps 740 mmHg 55%
20:00 +19°C° 0 mm 2 mps 740 mmHg 57%
21:00 +18°C° 0 mm 2 mps 740 mmHg 58%
22:00 +18°C° 0 mm 2 mps 740 mmHg 59%
23:00 +17°C° 0 mm 2 mps 740 mmHg 59%

Tomorrow, 24 July, Saturday

Time Temperature Precipitation Wind Pressure Humidity
00:00 +17°C° 0 mm 2 mps 740 mmHg 60%
01:00 +16°C° 0 mm 2 mps 740 mmHg 64%
02:00 +16°C° 0 mm 2 mps 740 mmHg 68%
03:00 +14°C° 0 mm 3 mps 740 mmHg 72%
04:00 +14°C° 0 mm 3 mps 740 mmHg 73%
05:00 +16°C° 0 mm 3 mps 741 mmHg 75%
06:00 +15°C° 0 mm 4 mps 741 mmHg 76%
07:00 +17°C° 0 mm 4 mps 741 mmHg 70%
08:00 +17°C° 0 mm 5 mps 741 mmHg 63%
09:00 +20°C° 0 mm 5 mps 742 mmHg 57%
10:00 +20°C° 0.1 mm 5 mps 742 mmHg 54%
11:00 +21°C° 0.1 mm 6 mps 742 mmHg 51%
12:00 +22°C° 0.1 mm 6 mps 743 mmHg 49%
13:00 +21°C° 0.3 mm 6 mps 743 mmHg 52%
14:00 +21°C° 0.3 mm 6 mps 743 mmHg 55%
15:00 +20°C° 0.3 mm 6 mps 744 mmHg 58%
16:00 +20°C° 0 mm 5 mps 744 mmHg 58%
17:00 +19°C° 0 mm 5 mps 745 mmHg 57%
18:00 +19°C° 0 mm 4 mps 745 mmHg 57%
19:00 +18°C° 0 mm 3 mps 746 mmHg 58%
20:00 +17°C° 0 mm 3 mps 746 mmHg 60%
21:00 +16°C° 0 mm 2 mps 747 mmHg 61%
22:00 +16°C° 0 mm 2 mps 747 mmHg 61%
23:00 +15°C° 0 mm 2 mps 748 mmHg 60%

Day after tomorrow, 25 July, Sunday

Time Temperature Precipitation Wind Pressure Humidity
00:00 +15°C° 0 mm 2 mps 748 mmHg 60%
01:00 +14°C° 0 mm 2 mps 749 mmHg 61%
02:00 +14°C° 0 mm 2 mps 749 mmHg 62%
03:00 +13°C° 0 mm 2 mps 749 mmHg 63%
04:00 +13°C° 0 mm 2 mps 750 mmHg 63%
05:00 +14°C° 0 mm 2 mps 750 mmHg 63%
06:00 +14°C° 0 mm 2 mps 751 mmHg 62%
07:00 +15°C° 0 mm 2 mps 751 mmHg 56%
08:00 +17°C° 0 mm 2 mps 751 mmHg 50%
09:00 +18°C° 0 mm 2 mps 752 mmHg 43%
10:00 +19°C° 0 mm 2 mps 752 mmHg 41%
11:00 +20°C° 0 mm 2 mps 752 mmHg 38%
12:00 +21°C° 0 mm 2 mps 752 mmHg 36%
13:00 +21°C° 0 mm 2 mps 752 mmHg 35%
14:00 +22°C° 0 mm 3 mps 752 mmHg 35%
15:00 +22°C° 0 mm 3 mps 752 mmHg 35%
16:00 +21°C° 0 mm 3 mps 752 mmHg 38%
17:00 +21°C° 0 mm 3 mps 752 mmHg 42%
18:00 +20°C° 0 mm 3 mps 752 mmHg 45%
19:00 +19°C° 0 mm 3 mps 753 mmHg 47%
20:00 +17°C° 0 mm 2 mps 753 mmHg 49%
21:00 +16°C° 0 mm 1 mps 753 mmHg 50%
22:00 +15°C° 0 mm 1 mps 753 mmHg 50%
23:00 +15°C° 0 mm 1 mps 753 mmHg 49%

26 July, Monday

Time Temperature Precipitation Wind Pressure Humidity
00:00 +14°C° 0 mm 0 mps 754 mmHg 49%
01:00 +15°C° 0 mm 1 mps 754 mmHg 49%
02:00 +15°C° 0 mm 1 mps 754 mmHg 48%
03:00 +15°C° 0 mm 1 mps 754 mmHg 48%
04:00 +15°C° 0 mm 1 mps 754 mmHg 50%
05:00 +16°C° 0 mm 1 mps 754 mmHg 52%
06:00 +16°C° 0 mm 2 mps 755 mmHg 53%
07:00 +18°C° 0 mm 2 mps 755 mmHg 49%
08:00 +19°C° 0 mm 2 mps 755 mmHg 45%
09:00 +21°C° 0 mm 3 mps 755 mmHg 41%
10:00 +22°C° 0 mm 3 mps 755 mmHg 38%
11:00 +24°C° 0 mm 3 mps 754 mmHg 36%
12:00 +25°C° 0 mm 3 mps 754 mmHg 33%
13:00 +25°C° 0 mm 3 mps 754 mmHg 33%
14:00 +25°C° 0 mm 3 mps 754 mmHg 33%
15:00 +25°C° 0 mm 3 mps 754 mmHg 34%
16:00 +24°C° 0 mm 3 mps 753 mmHg 38%
17:00 +24°C° 0 mm 2 mps 753 mmHg 42%
18:00 +23°C° 0 mm 2 mps 753 mmHg 47%
19:00 +21°C° 0 mm 2 mps 753 mmHg 48%
20:00 +19°C° 0 mm 2 mps 753 mmHg 50%
21:00 +18°C° 0 mm 2 mps 753 mmHg 52%
22:00 +18°C° 0 mm 2 mps 753 mmHg 51%
23:00 +18°C° 0 mm 2 mps 753 mmHg 51%

27 July, Tuesday

Time Temperature Precipitation Wind Pressure Humidity
00:00 +18°C° 0 mm 3 mps 753 mmHg 50%
01:00 +17°C° 0 mm 2 mps 753 mmHg 53%
02:00 +17°C° 0 mm 2 mps 753 mmHg 55%
03:00 +16°C° 0 mm 2 mps 752 mmHg 58%
04:00 +17°C° 0 mm 2 mps 752 mmHg 59%
05:00 +17°C° 0 mm 2 mps 753 mmHg 60%
06:00 +17°C° 0 mm 2 mps 753 mmHg 61%
07:00 +19°C° 0 mm 3 mps 753 mmHg 55%
08:00 +21°C° 0 mm 3 mps 752 mmHg 50%
09:00 +24°C° 0 mm 3 mps 752 mmHg 44%
10:00 +25°C° 0 mm 4 mps 752 mmHg 42%
11:00 +26°C° 0 mm 4 mps 752 mmHg 40%
12:00 +27°C° 0 mm 5 mps 752 mmHg 37%
13:00 +27°C° 0 mm 5 mps 751 mmHg 38%
14:00 +27°C° 0 mm 4 mps 751 mmHg 39%
15:00 +27°C° 0 mm 4 mps 751 mmHg 39%
16:00 +26°C° 0 mm 4 mps 751 mmHg 43%
17:00 +25°C° 0 mm 4 mps 751 mmHg 47%
18:00 +24°C° 0 mm 3 mps 751 mmHg 50%
19:00 +22°C° 0.1 mm 3 mps 751 mmHg 58%
20:00 +20°C° 0.1 mm 2 mps 751 mmHg 66%
21:00 +19°C° 0.1 mm 1 mps 751 mmHg 74%
22:00 +19°C° 0 mm 1 mps 751 mmHg 76%
23:00 +18°C° 0 mm 1 mps 751 mmHg 78%

28 July, Wednesday

Time Temperature Precipitation Wind Pressure Humidity
00:00 +17°C° 0 mm 2 mps 751 mmHg 81%
01:00 +16°C° 0 mm 2 mps 751 mmHg 83%
02:00 +16°C° 0 mm 2 mps 751 mmHg 84%
03:00 +15°C° 0 mm 2 mps 751 mmHg 86%
04:00 +16°C° 0 mm 2 mps 751 mmHg 83%
05:00 +17°C° 0 mm 2 mps 751 mmHg 79%
06:00 +18°C° 0 mm 1 mps 751 mmHg 76%
07:00 +20°C° 0 mm 1 mps 751 mmHg 67%
08:00 +22°C° 0 mm 1 mps 751 mmHg 59%
09:00 +24°C° 0 mm 1 mps 751 mmHg 51%
10:00 +25°C° 0 mm 2 mps 751 mmHg 46%
11:00 +26°C° 0 mm 2 mps 751 mmHg 42%
12:00 +27°C° 0 mm 3 mps 751 mmHg 37%
13:00 +27°C° 0 mm 3 mps 750 mmHg 36%
14:00 +28°C° 0 mm 3 mps 750 mmHg 35%
15:00 +28°C° 0 mm 4 mps 750 mmHg 34%
16:00 +27°C° 0 mm 3 mps 750 mmHg 38%
17:00 +27°C° 0 mm 2 mps 750 mmHg 43%
18:00 +26°C° 0 mm 2 mps 750 mmHg 47%
19:00 +25°C° 0 mm 1 mps 750 mmHg 49%
20:00 +23°C° 0 mm 1 mps 749 mmHg 51%
21:00 +21°C° 0 mm 1 mps 749 mmHg 53%
22:00 +21°C° 0 mm 1 mps 749 mmHg 55%
23:00 +19°C° 0 mm 2 mps 749 mmHg 56%
Show more

We Need Your Consent

Meteoprog and our Service Providers may store and access personal data such as cookies, device identifiers or other similar technologies on your device and process such data to personalise content and ads, as well as provide social media features and to analyse the traffic.

  • Store and/or access information on your device

    Cookies, device identifiers or other information can be stored or accessed on your device for the purposes indicated above.

  • Personalised ads and content, ad and content measurement, audience insights, and products development

    Ads and content can be personalised based on a profile. More data can be added to better personalise ads and content. Ad and content performance can be measured. Insights about the audience who saw the ads and content can be derived. Such data can be used to develop or improve user’s experience, systems and software.

By clicking ‘I Agree’ you will allow the use of indicated cookies, device identifiers, web beacons or other similar technologies. Your settings can be changed in the browser on your device.

For certain purposes, legitimate interests may be relied on, rather than consent. You can read more about this in our Privacy and Cookie Policy.